Poplar Bluff, MO

1:35 PM CST on November 11, 2019 (GMT -0600)
Poplar Bluff Municipal

Weather History for KPOF - June, 2019

Change the Weather History Date:

Thursday, June 13, 2019

  Actual Average Record
Temperature  
Mean Temperature 66 °F 76 °F  
Max Temperature 77 °F 86 °F 100 °F (1925)
Min Temperature 55 °F 65 °F 48 °F (1985)
Degree Days  
Heating Degree Days 0 0  
Month to date heating degree days 0 0  
Since 1 June heating degree days 0 0  
Since 1 July heating degree days 4043 4074  
Cooling Degree Days 1 11  
Month to date cooling degree days 105 121  
Year to date cooling degree days 319 285  
Since 1 June cooling degree days 105 121  
Growing Degree Days 16 (Base 50)    
Moisture  
Dew Point 52 °F    
Average Humidity 62    
Maximum Humidity 93    
Minimum Humidity 31    
Precipitation  
Precipitation 0.00 in 0.13 in 2.12 in (1928)
Month to date precipitation 1.50 1.74  
Year to date precipitation 35.47 21.97  
Sea Level Pressure  
Sea Level Pressure 30.04 in    
Wind  
Wind Speed 7 mph (NW)    
Max Wind Speed 20 mph    
Max Gust Speed 26 mph    
Visibility 10 miles    
Events      
T = Trace of Precipitation, MM = Missing Value Source: NWS Daily Summary

Daily Weather History Graph

Daily Weather History Graph

Search for Another Location

Airport or City:

Astronomy

Jun. 13, 2019 Rise Set
Actual Time 5:41 AM CDT 8:21 PM CDT
Civil Twilight 5:11 AM CDT 8:51 PM CDT
Nautical Twilight 4:33 AM CDT 9:29 PM CDT
Astronomical Twilight 3:50 AM CDT 10:12 PM CDT
Moon 4:41 PM CDT (6/13) 3:20 AM CDT (6/13)
Length of Visible Light 15h 40m
Length of Day
14h 39m
Waxing Gibbous, 85% of the Moon is Illuminated
Jun 13
Waxing Gibbous
Jun 17
Full
Jun 25
Last Quarter
Jul 2
New
Jul 9
First Quarter

Hourly Weather History & Observations

Time (CDT) Temp. Dew Point Humidity Pressure Visibility Wind Dir Wind Speed Gust Speed Precip Events Conditions
12:53 AM 59.0 °F 57.0 °F 93% 29.94 in 10.0 mi WNW 8.1 mph - N/A   Clear
1:53 AM 57.9 °F 55.0 °F 90% 29.94 in 10.0 mi West 8.1 mph - N/A   Clear
2:53 AM 55.9 °F 54.0 °F 93% 29.95 in 10.0 mi West 4.6 mph - N/A   Clear
3:53 AM 55.0 °F 54.0 °F 96% 29.96 in 10.0 mi West 4.6 mph - N/A   Clear
4:53 AM 55.9 °F 54.0 °F 93% 29.97 in 10.0 mi West 5.8 mph - N/A   Clear
5:53 AM 55.0 °F 54.0 °F 96% 29.99 in 10.0 mi NW 6.9 mph - N/A   Clear
6:53 AM 57.0 °F 55.0 °F 93% 30.01 in 10.0 mi NW 8.1 mph - N/A   Clear
7:53 AM 60.1 °F 55.0 °F 83% 30.04 in 10.0 mi NW 11.5 mph - N/A   Clear
8:53 AM 64.0 °F 55.9 °F 75% 30.05 in 10.0 mi WNW 6.9 mph - N/A   Clear
9:53 AM 69.1 °F 55.9 °F 63% 30.06 in 10.0 mi WNW 8.1 mph - N/A   Clear
10:53 AM 73.0 °F 55.0 °F 53% 30.06 in 10.0 mi North 9.2 mph - N/A   Clear
11:53 AM 73.9 °F 50.0 °F 43% 30.07 in 10.0 mi NNW 13.8 mph - N/A   Partly Cloudy
12:53 PM 73.9 °F 48.9 °F 41% 30.08 in 10.0 mi NW 10.4 mph - N/A   Clear
1:53 PM 75.0 °F 48.0 °F 38% 30.06 in 10.0 mi North 13.8 mph 25.3 mph N/A   Clear
2:53 PM 75.9 °F 45.0 °F 33% 30.06 in 9.0 mi WNW 12.7 mph 19.6 mph N/A   Clear
3:53 PM 75.9 °F 46.0 °F 35% 30.06 in 10.0 mi NNW 12.7 mph - N/A   Clear
4:53 PM 77.0 °F 46.0 °F 33% 30.06 in 10.0 mi North 10.4 mph - N/A   Clear
5:53 PM 75.9 °F 43.0 °F 31% 30.06 in 10.0 mi NNW 10.4 mph - N/A   Clear
6:53 PM 75.0 °F 43.0 °F 32% 30.07 in 10.0 mi NNE 5.8 mph - N/A   Clear
7:53 PM 71.1 °F 55.0 °F 57% 30.07 in 9.0 mi Calm Calm - N/A   Clear
8:53 PM 62.1 °F 55.9 °F 80% 30.08 in 10.0 mi Calm Calm - N/A   Clear
9:53 PM 61.0 °F 55.0 °F 81% 30.10 in 10.0 mi Calm Calm - N/A   Clear
10:53 PM 57.9 °F 54.0 °F 87% 30.11 in 10.0 mi Calm Calm - N/A   Clear
11:53 PM 55.9 °F 54.0 °F 93% 30.11 in 10.0 mi Calm Calm - N/A   Clear